Location: Home
(42.5358°N, 72.7383°W)
Time: 05:50:05
(UTC-05:00)

A-11 Canister half - Pass Details

Date: 05 December 2021
Orbit: 1524 x 1684 km, 47.3° (Epoch: 17 January)

Event Time Altitude Azimuth Distance (km) Brightness Sun altitude
Exits shadow 01:58:10 28° 66° (ENE) 2,775 10.5 -55.2°
Drops below altitude 10° 02:01:59 10° 67° (ENE) 3,902 11.5 -54.6°
Sets 02:05:05 0° 68° (ENE) 4,873 12.2 -54.1°
